sat.trackr.live / text

‹ back to catalog

ONEWEB-0331

NORAD 49198 · 2021-083N

PAYLOAD ACTIVE UNKNOWN

§ Identity

Operator
Country
UK
Launch date
2021-09-14
Launch site
TYMSC
Launch vehicle
Mass (kg)
RCS (m²)

Purposes: comms

External: N2YO · Heavens-Above · Gunter

§ Orbital elements

Epoch: 2026-09-19T22:00:09.632160Z

Period
109.20 min
Inclination
87.9166°
Eccentricity
0.0002151
Mean motion
13.18686202 rev/d
Perigee alt
1,188.1 km
Apogee alt
1,191.4 km
Semi-major
7,567.9 km
B*
-3.5092e-5
RAAN
316.6315°
Arg perigee
104.6874°
Mean anomaly
255.4496°
Rev number
24,249

§ Raw data

ONEWEB-03311 49198U 21083N   26262.91677815 -.00000001  00000+0 -35092-4 0  99922 49198  87.9166 316.6315 0002151 104.6874 255.4496 13.18686202242497

JSON: /api/v1/satellites/49198 · /tle

For live sub-satellite position, see the globe view (requires WebGL).

§ Visibility from observer

Set your observer location to see the next 7 days of passes ≥ 10°. The values pass through the URL so the page stays shareable.

No JS? Fill the form by hand. The geolocation button needs JavaScript.